Dewpoint
43 44 48 54 56 57 58 58 58 59 60 62 64 65 65 65 63 60 59 58 57 57 58 57 56 55 54 53 51 50 48 48 47 49 50 51 51 50 50 51 51 51 49
44 44 44 46 51 54 56 56 57 56 56 55 57 63 64 64 63 61 59 58 56 57 57 57 56 56 56 55 53 51 50 49 48 48 49 49 50 51 50 50 51 51 49
41 42 43 44 46 47 53 55 54 54 54 54 54 55 57 63 63 61 59 59 57 56 56 56 56 56 56 56 55 54 53 51 51 50 47 47 49 51 47 49 50 49 49
39 41 42 42 44 45 47 51 51 51 50 51 52 53 54 55 60 62 61 60 58 57 56 56 56 56 56 56 56 55 54 54 52 52 51 46 48 45 48 47 45 47 47
37 38 41 43 43 44 45 46 47 47 49 49 49 49 50 52 55 55 60 60 60 58 57 56 56 55 52 54 56 56 55 54 52 51 51 43 44 43 46 47 46 45 45
34 35 36 38 43 42 42 43 47 46 43 45 43 46 47 50 44 42 45 53 60 59 57 57 57 51 51 47 47 49 53 55 53 51 51 45 46 46 46 46 45 42 37
32 34 35 35 37 38 38 41 43 44 43 42 42 43 43 44 41 40 40 49 51 58 58 57 56 56 51 55 47 44 45 45 46 53 51 47 43 44 45 45 44 43 43
31 32 34 34 34 35 36 36 39 43 43 42 41 41 42 43 38 38 38 45 47 51 55 57 56 55 54 54 53 51 51 50 48 49 51 49 49 45 46 45 44 39 35
32 33 33 34 33 34 34 35 38 41 40 39 39 41 41 41 38 38 38 43 45 45 49 53 56 55 50 46 53 51 48 48 44 45 46 43 41 42 44 41 35 36 32
33 33 33 34 34 33 34 34 38 41 39 35 36 36 37 37 38 38 39 39 39 39 42 44 42 51 43 41 52 49 44 42 40 37 38 40 41 41 40 44 39 38 32
35 35 35 35 35 35 33 34 36 37 35 36 35 36 35 36 37 38 38 36 37 36 37 38 38 39 40 41 45 47 45 37 35 36 36 37 39 41 41 42 40 40 35
34 33 33 34 34 34 33 34 36 36 35 34 34 34 35 34 35 36 37 37 37 36 35 35 35 38 39 38 37 37 36 36 36 35 35 34 35 36 37 36 36 36 36
32 32 32 33 34 33 32 35 37 36 36 35 34 34 35 36 34 36 36 36 36 34 33 34 35 36 35 34 34 34 34 35 34 34 34 33 34 34 33 34 33 33 33
31 31 31 31 32 31 35 37 37 36 35 35 34 34 35 35 35 34 33 33 34 34 33 34 33 33 33 33 34 33 34 34 34 34 33 32 33 34 33 33 33 33 31
30 30 30 30 30 32 33 35 36 38 37 36 35 35 34 34 34 35 34 33 33 33 33 33 33 33 33 33 33 33 33 34 33 33 33 32 32 33 32 33 33 32 29
30 30 30 30 31 30 30 33 35 36 35 35 36 35 34 35 35 35 35 35 34 33 33 33 33 33 33 33 32 32 33 33 33 33 33 32 32 31 31 32 32 32 30
32 32 32 31 31 30 30 31 32 34 35 35 35 35 35 35 35 36 36 34 34 34 33 33 33 33 32 32 32 32 32 32 33 32 32 32 31 31 31 31 31 31 30
32 32 32 31 32 32 31 32 34 33 32 33 34 34 34 35 35 35 34 34 33 34 34 33 32 33 32 32 32 32 32 32 32 32 32 32 31 31 31 31 31 30 30
32 32 32 32 32 32 32 32 34 33 33 33 32 32 33 34 34 34 35 34 33 33 33 33 33 33 32 32 32 32 32 32 32 32 32 31 31 31 30 31 31 29 29
32 32 32 32 32 32 32 33 33 33 33 32 32 32 33 33 33 33 33 33 33 33 33 33 33 33 33 33 33 33 32 32 32 32 32 32 32 31 30 30 30 30 29
32 32 32 32 32 32 33 33 33 33 33 32 33 33 33 34 33 33 33 33 33 33 33 33 33 33 33 33 33 32 32 32 32 32 32 32 32 31 31 31 30 30 30
32 32 32 32 32 32 32 32 32 32 32 31 31 31 32 32 32 32 32 33 33 33 34 33 33 33 33 33 33 33 32 32 32 32 32 32 32 31 31 31 31 31 30
32 32 32 32 32 31 31 32 31 31 31 31 32 32 32 32 32 32 32 33 33 33 33 33 32 31 31 30 31 33 32 32 32 33 32 32 31 31 32 31 31 30 30
32 32 32 32 31 31 30 31 31 31 31 32 32 32 32 32 32 32 32 31 31 31 31 29 29 29 29 29 29 29 30 31 31 32 32 31 30 30 30 29 29 29 29
32 32 32 31 31 30 31 31 31 31 31 31 31 31 31 32 31 31 31 31 30 28 27 29 29 28 29 29 29 29 29 28 30 30 30 29 29 29 28 28 28 27 27
32 32 32 32 31 31 31 31 31 31 31 31 31 31 31 30 31 31 30 30 30 30 30 30 29 29 29 29 29 30 30 29 29 29 29 29 28 27 27 27 27 26 25
Lifted_Index
5 4 2 1 0 -1 -1 -2 -2 -3 -3 -2 -2 -3 -2 -2 -2 -2 -2 -2 -2 -2 -1 -1 -0 1 1 2 2 2 2 2 2 2 2 3 3 3 3 4 4 5 6
8 7 5 4 2 1 -0 -1 -1 -2 -2 -2 -2 -2 -2 -2 -2 -2 -2 -2 -2 -2 -1 -1 -1 -0 1 1 1 1 1 1 1 1 2 2 3 3 4 4 4 5 5
10 10 9 8 7 6 4 2 2 2 1 -0 -0 0 -0 -1 -2 -2 -2 -2 -2 -2 -1 -1 -1 -1 -0 0 0 1 1 1 1 1 1 2 2 3 3 3 4 4 5
12 11 11 10 10 9 8 7 6 6 5 4 4 3 2 0 -1 -1 -1 -1 -1 -1 -1 -1 -1 -1 -1 -1 -0 0 0 0 0 1 1 1 2 2 2 2 3 4 5
14 13 13 12 11 10 10 9 8 8 8 8 8 7 5 2 1 0 -0 -0 -0 -1 -1 -1 -1 -1 -1 -1 -1 -0 0 0 0 0 0 0 1 1 1 1 2 3 4
15 14 14 13 12 11 11 10 10 9 9 9 9 9 8 6 3 2 1 1 0 -0 -1 -1 -0 0 0 -1 -1 -1 -1 -0 -0 -0 -0 -0 0 0 1 1 2 2 3
14 14 13 13 13 13 13 12 12 11 10 9 9 9 9 8 6 5 3 2 1 -0 -0 -0 0 1 1 1 -0 -1 -0 -0 -1 -0 0 0 1 2 2 2 2 3 3
12 12 12 13 13 13 13 13 13 12 11 10 10 10 10 9 8 7 5 4 3 1 1 0 0 1 1 1 1 0 0 1 1 1 1 2 2 3 3 3 3 4 5
12 12 12 12 13 13 14 14 13 12 12 11 12 12 11 10 9 8 6 6 5 3 2 1 1 1 1 1 1 1 1 1 2 2 2 3 3 4 3 4 4 5 6
11 12 12 12 12 13 13 13 13 12 12 12 12 13 13 12 11 9 7 6 6 5 3 2 1 1 1 1 1 1 1 2 2 2 3 3 4 4 4 5 6 6 6
11 11 11 11 12 12 12 13 13 12 12 12 13 13 14 13 12 10 8 7 6 6 4 3 2 1 1 1 1 1 1 2 2 2 3 3 3 4 5 6 7 7 8
10 10 11 11 11 11 12 12 12 12 12 12 13 13 14 13 12 10 8 7 6 6 6 5 4 3 2 2 1 2 2 2 2 2 2 2 3 4 6 7 8 9 10
10 10 10 10 11 11 11 11 12 12 12 12 13 13 13 13 11 9 8 7 6 6 6 6 6 5 4 3 3 3 3 3 3 2 2 3 4 6 7 8 9 10 11
10 10 10 10 10 10 10 11 11 11 11 11 12 12 13 13 11 9 8 7 7 6 6 6 6 5 4 4 3 3 3 3 3 3 4 5 6 7 8 9 10 11 12
9 9 9 9 9 9 10 10 11 11 10 10 10 11 12 12 10 9 8 7 7 7 6 6 5 5 4 4 4 4 4 4 5 5 6 7 8 9 10 11 11 11 11
8 8 9 9 9 9 9 9 10 10 10 9 9 9 10 10 9 8 8 7 7 6 6 5 5 4 4 4 4 5 5 6 7 8 8 9 9 10 10 11 11 11 10
8 9 9 9 8 8 8 8 8 9 9 8 7 8 9 9 8 7 7 7 7 6 6 5 5 5 5 5 6 6 7 8 8 9 9 9 10 10 10 10 10 10 10
9 9 9 8 8 8 8 8 8 8 8 7 6 7 8 8 7 7 6 6 6 6 6 6 6 6 7 7 8 8 8 8 9 9 9 9 9 10 9 9 9 9 9
9 9 8 8 7 7 8 8 8 8 7 6 6 6 7 6 6 5 6 6 5 6 6 6 7 7 7 8 8 8 8 8 8 8 8 9 9 9 8 8 8 7 7
9 8 7 7 7 7 8 8 8 7 6 5 5 6 6 5 5 5 5 5 5 6 6 6 7 7 7 7 8 8 8 7 7 8 8 8 8 8 7 7 6 6 6
9 8 7 7 7 7 8 8 8 7 6 5 5 6 6 5 5 5 5 6 6 6 6 7 7 7 7 7 7 7 7 7 7 7 7 7 7 7 7 6 6 7 7
9 8 8 7 7 7 7 7 7 6 6 5 5 5 5 5 5 6 6 6 6 6 7 7 7 7 8 8 8 7 7 7 6 6 6 6 7 7 7 7 8 8 8
9 9 9 8 8 7 7 7 6 6 6 5 5 5 5 5 6 6 6 7 7 7 7 7 7 8 8 8 8 8 7 7 7 7 7 7 7 8 8 9 9 9 9
9 9 9 9 9 8 8 7 7 7 6 6 6 6 6 6 6 6 6 7 7 7 7 8 8 8 8 8 8 8 8 8 8 8 8 9 9 9 10 10 10 10 10
9 9 9 9 9 9 9 8 8 7 7 7 7 6 6 6 6 6 7 7 7 7 7 7 8 8 8 8 8 8 9 9 10 10 10 10 10 10 11 11 11 11 11
9 9 9 9 10 10 9 9 8 8 7 7 7 7 6 6 6 7 7 8 7 7 7 7 8 8 8 8 8 9 9 10 10 11 12 11 11 11 11 11 11 11 11